TimeCDT,TemperatureF,Dew PointF,Humidity,Sea Level PressureIn,VisibilityMPH,Wind Direction,Wind SpeedMPH,Gust SpeedMPH,PrecipitationIn,Events,Conditions,WindDirDegrees,DateUTC
12:04 AM,62.6,59.0,88,29.86,10.0,SE,6.9,-,N/A,,Mostly Cloudy,140,2013-05-17 05:04:00
12:31 AM,60.8,59.0,94,29.85,10.0,ESE,6.9,-,N/A,,Scattered Clouds,110,2013-05-17 05:31:00
12:53 AM,61.0,59.0,93,29.81,10.0,East,5.8,-,N/A,,Clear,100,2013-05-17 05:53:00
1:34 AM,62.6,60.8,94,29.85,8.0,SE,10.4,17.3,N/A,,Scattered Clouds,130,2013-05-17 06:34:00
1:43 AM,62.6,60.8,94,29.86,7.0,SE,10.4,-,N/A,,Mostly Cloudy,130,2013-05-17 06:43:00
1:53 AM,62.1,61.0,96,29.80,5.0,SE,13.8,-,N/A,,Overcast,130,2013-05-17 06:53:00
2:11 AM,62.6,60.8,94,29.86,1.8,ESE,6.9,-,N/A,,Overcast,110,2013-05-17 07:11:00
2:41 AM,60.8,60.8,100,29.88,2.5,NE,12.7,-,N/A,,Overcast,40,2013-05-17 07:41:00
2:50 AM,60.8,60.8,100,29.88,4.0,NE,10.4,-,N/A,,Overcast,50,2013-05-17 07:50:00
2:53 AM,61.0,61.0,100,29.83,3.0,NE,10.4,-,N/A,,Overcast,50,2013-05-17 07:53:00
3:27 AM,62.6,60.8,94,29.88,2.5,NE,9.2,-,N/A,,Overcast,40,2013-05-17 08:27:00
3:36 AM,62.6,60.8,94,29.89,4.0,NE,9.2,-,N/A,,Overcast,50,2013-05-17 08:36:00
3:53 AM,62.1,61.0,96,29.82,6.0,NE,11.5,-,N/A,,Overcast,50,2013-05-17 08:53:00
4:37 AM,60.8,60.8,100,29.86,1.8,East,8.1,-,N/A,,Overcast,90,2013-05-17 09:37:00
4:50 AM,60.8,60.8,100,29.86,0.8,East,5.8,-,N/A,,Overcast,90,2013-05-17 09:50:00
4:53 AM,61.0,61.0,100,29.81,0.5,East,6.9,-,N/A,Fog,Fog,90,2013-05-17 09:53:00
5:53 AM,62.1,62.1,100,29.78,0.2,ESE,10.4,-,N/A,Fog,Fog,110,2013-05-17 10:53:00
6:02 AM,62.6,62.6,100,29.84,0.2,ESE,8.1,-,N/A,Fog,Fog,120,2013-05-17 11:02:00
6:39 AM,62.6,62.6,100,29.83,0.2,ESE,8.1,-,N/A,Fog,Fog,110,2013-05-17 11:39:00
6:53 AM,63.0,63.0,100,29.78,0.2,ESE,8.1,-,N/A,Fog,Fog,110,2013-05-17 11:53:00
7:04 AM,62.6,62.6,100,29.84,0.2,East,8.1,-,N/A,Fog,Fog,100,2013-05-17 12:04:00
7:49 AM,62.6,62.6,100,29.87,0.2,East,5.8,-,N/A,Fog,Fog,100,2013-05-17 12:49:00
7:53 AM,64.0,64.0,100,29.82,0.2,East,4.6,-,N/A,Fog,Fog,100,2013-05-17 12:53:00
8:53 AM,64.0,64.0,100,29.83,0.8,East,6.9,-,N/A,,Overcast,80,2013-05-17 13:53:00
9:18 AM,64.4,64.4,100,29.89,1.0,East,6.9,-,N/A,,Overcast,80,2013-05-17 14:18:00
9:53 AM,64.9,64.9,100,29.85,1.5,East,6.9,-,N/A,,Overcast,80,2013-05-17 14:53:00
10:07 AM,64.4,64.4,100,29.89,2.0,East,5.8,-,N/A,,Overcast,90,2013-05-17 15:07:00
10:32 AM,66.2,64.4,94,29.89,3.0,East,6.9,-,N/A,,Overcast,80,2013-05-17 15:32:00
10:53 AM,66.0,66.0,100,29.85,2.5,East,6.9,-,N/A,,Overcast,90,2013-05-17 15:53:00
11:21 AM,66.2,66.2,100,29.90,3.0,East,8.1,-,N/A,,Overcast,100,2013-05-17 16:21:00
11:53 AM,68.0,66.9,96,29.86,4.0,East,8.1,-,N/A,,Overcast,90,2013-05-17 16:53:00
12:53 PM,69.1,68.0,96,29.86,4.0,East,10.4,-,N/A,,Overcast,100,2013-05-17 17:53:00
2:37 PM,75.2,68.0,78,29.87,10.0,ESE,10.4,-,N/A,,Overcast,120,2013-05-17 19:37:00
2:53 PM,75.0,68.0,79,29.82,10.0,ESE,6.9,-,N/A,,Overcast,110,2013-05-17 19:53:00
3:40 PM,78.8,68.0,69,29.87,10.0,ESE,9.2,-,N/A,,Overcast,120,2013-05-17 20:40:00
3:53 PM,77.0,68.0,74,29.81,10.0,ESE,9.2,-,N/A,,Overcast,120,2013-05-17 20:53:00
4:53 PM,79.0,68.0,69,29.79,10.0,East,10.4,-,N/A,,Overcast,90,2013-05-17 21:53:00
5:53 PM,81.0,68.0,65,29.78,10.0,SE,8.1,-,N/A,,Scattered Clouds,140,2013-05-17 22:53:00
6:03 PM,82.4,68.0,62,29.83,10.0,East,11.5,-,N/A,,Mostly Cloudy,100,2013-05-17 23:03:00
6:28 PM,80.6,69.8,70,29.83,9.0,East,11.5,-,N/A,,Mostly Cloudy,100,2013-05-17 23:28:00
6:38 PM,80.6,69.8,70,29.83,9.0,East,11.5,19.6,N/A,,Mostly Cloudy,80,2013-05-17 23:38:00
6:53 PM,79.0,69.1,72,29.77,8.0,East,9.2,-,N/A,,Scattered Clouds,80,2013-05-17 23:53:00
7:44 PM,77.0,69.8,78,29.84,7.0,East,11.5,-,N/A,,Mostly Cloudy,100,2013-05-18 00:44:00
7:53 PM,75.9,69.1,79,29.78,7.0,East,15.0,-,N/A,,Mostly Cloudy,100,2013-05-18 00:53:00
8:53 PM,73.9,70.0,87,29.78,7.0,East,13.8,-,N/A,,Overcast,90,2013-05-18 01:53:00
9:23 PM,73.4,69.8,88,29.84,6.0,East,16.1,23.0,N/A,,Overcast,100,2013-05-18 02:23:00
9:35 PM,73.4,69.8,88,29.85,6.0,ESE,15.0,-,N/A,,Overcast,110,2013-05-18 02:35:00
9:53 PM,73.0,70.0,90,29.80,6.0,East,12.7,-,N/A,,Overcast,100,2013-05-18 02:53:00
10:53 PM,72.0,70.0,93,29.80,4.0,ESE,17.3,25.3,N/A,,Overcast,120,2013-05-18 03:53:00
11:53 PM,71.1,71.1,100,29.79,2.5,SE,16.1,-,N/A,,Overcast,130,2013-05-18 04:53:00